Weather Roundup
Issued by NWS

Home | Current Version | Previous Version | Graphics & Text | Print | Product List | Glossary Off
Versions: 1 2 3 4 5 6 7 8 9 10 11 12 13 14 15 16 17 18 19 20 21 22 23 24 25 26 27 28 29 30 31 32 33 34 35 36 37 38 39 40 41 42 43 44 45 46 47 48 49 50

000
NZUS93 KARX 020110
HRRWXR

CURRENT HOURLY OBSERVATIONS ACROSS
MUCH OF THE UPPER MISSISSIPPI VALLEY
NATIONAL WEATHER SERVICE LA CROSSE WI
800 PM CDT SAT AUG 01 2015


...SOUTHEAST MINNESOTA...


CITY           SKY/WX    TMP DP  RH WIND       PRES   REMARKS
ROCHESTER      CLEAR     76  68  76 S8        29.86F
ROCHESTER/MAYO FAIR      82  67  61 S6        29.84F
WINONA         CLEAR     79  64  61 CALM      29.83F
AUSTIN         CLEAR     79  70  73 S8        29.86S
ALBERT LEA     CLEAR     81  64  57 SW3       29.86S
DODGE CENTER   CLEAR     77  68  73 SW7       29.85F
PRESTON        CLEAR     78  67  70 S5        29.87F
OWATONNA       CLEAR     79  66  65 S8        29.84S
FARIBAULT      CLEAR     81  66  61 S5        29.83S
$$

...ELSEWHERE IN MINNESOTA...


CITY           SKY/WX    TMP DP  RH WIND       PRES   REMARKS
MINNEAPOLIS    PTCLDY    84  67  56 S9        29.79F
INTNL FALLS    PTCLDY    74  56  53 W5        29.70F
DULUTH         PTCLDY    76  56  49 SW12      29.77F
RED WING       CLEAR     82  64  54 CALM      29.79F
REDWOOD FALLS  CLEAR     81  68  64 S10       29.79F
MANKATO        CLEAR     81  64  57 SW10      29.82S
WORTHINGTON    CLEAR     75  63  64 S10       29.86F
FAIRMONT       CLEAR     79  61  53 SW7       29.85S
$$

...SOUTHWEST WISCONSIN...


CITY           SKY/WX    TMP DP  RH WIND       PRES   REMARKS
LA CROSSE      CLEAR     82  65  56 S5        29.83F
PRAIRIE DU CHI CLEAR     81  64  56 CALM      29.86S
BOSCOBEL       CLEAR     82  66  58 W5        29.87S
LONE ROCK      CLEAR     81  62  52 CALM      29.87F
PLATTEVILLE    CLEAR     78  69  73 SW5       29.90S
FORT MC COY    CLEAR     79  59  50 SW3       29.86F
CAMP DOUGLAS   CLEAR     76  64  66 SW6       29.85F
VIROQUA        FAIR      76  67  72 SW3       29.89S
WIS DELLS      CLEAR     78  59  51 W6        29.87S
$$

...ELSEWHERE IN WISCONSIN...


CITY           SKY/WX    TMP DP  RH WIND       PRES   REMARKS
MILWAUKEE      PTCLDY    75  59  57 SE10      29.87S
MADISON        PTCLDY    79  62  56 CALM      29.87S
GREEN BAY      CLEAR     74  57  55 CALM      29.83F
EAU CLAIRE     CLEAR     77  61  57 SW5       29.81F
BLACK RVR FLS  FAIR      79  62  55 CALM      29.84S
MEDFORD        CLEAR     71  58  64 CALM      29.86S
WAUSAU         CLEAR     75  54  47 W6        29.83F
WIS RAPIDS     CLEAR     78  54  43 CALM      29.86F
MARSHFIELD     CLEAR     74  58  57 SW5       29.85F
RICE LAKE      CLEAR     74  60  61 S3        29.83F
$$

...NORTHEAST IOWA...


CITY           SKY/WX    TMP DP  RH WIND       PRES   REMARKS
DECORAH        CLEAR     79  68  69 CALM      29.87F
MASON CITY     CLEAR     79  68  69 S8        29.89F
CHARLES CITY   CLEAR     79  73  83 SW7       29.89S
OELWEIN        CLEAR     77  72  83 S5        29.90F HAZE
$$

...ELSEWHERE IN IOWA...


CITY           SKY/WX    TMP DP  RH WIND       PRES   REMARKS
DES MOINES     PTCLDY    84  71  65 SW6       29.90F
IOWA CITY      MOCLDY    81  72  74 S5        29.92F
FORT DODGE     CLEAR     79  68  69 S7        29.89F
$$

...NORTHERN ILLINOIS...


CITY           SKY/WX    TMP DP  RH WIND       PRES   REMARKS
CHICAGO-OHARE  MOCLDY    81  61  50 W13       29.89S
CHICAGO-MIDWAY MOCLDY    83  61  47 SW15      29.89S
MOLINE         MOCLDY    78  69  73 S6        29.91F
ROCKFORD       MOCLDY    79  65  62 SW8       29.91S
PEORIA         PTCLDY    81  63  54 SW7       29.95S
$$

NOTE: "FAIR" INDICATES FEW OR NO CLOUDS BELOW 12,000 FEET WITH NO
SIGNIFICANT WEATHER AND/OR OBSTRUCTIONS TO VISIBILITY. WIND
SPEEDS ARE IN MILES-PER-HOUR.



USA.gov is the U.S. government's official web portal to all federal, state and local government web resources and services.